Regional Weather Roundup
Issued by NWS

Home | Current Version | Previous Version | Text Only | Print | Product List | Glossary Off
Versions: 1 2 3 4 5 6 7 8 9 10 11 12 13 14 15 16 17 18 19 20 21 22 23 24 25 26 27 28

000
ASUS45 KBOI 301110
RWRID

IDAHO REGIONAL WEATHER ROUNDUP
NATIONAL WEATHER SERVICE BOISE ID
500 AM MDT TUE AUG 30 2016

NOTE: "FAIR" INDICATES FEW OR NO CLOUDS BELOW 12000 FEET
WITH NO SIGNIFICANT WEATHER AND/OR OBSTRUCTIONS TO VISIBILITY

IDZ012-014-301200-
SOUTHWEST IDAHO


CITY           SKY/WX    TMP DP  RH WIND       PRES   REMARKS
BOISE          MOCLDY    68  40  35 SE5       29.98S
CALDWELL       MOCLDY    60  53  77 N3        29.96F
MOUNTAIN HOME  PTCLDY    61  35  38 E8        30.00S
$$

IDZ016-017-301200-
SOUTHCENTRAL IDAHO


CITY           SKY/WX    TMP DP  RH WIND       PRES   REMARKS
BURLEY         PTCLDY    52  49  89 CALM      30.10S
JEROME         MOCLDY    66  37  34 NE10      30.09F
TWIN FALLS     MOCLDY    61  34  36 S8        30.09S
$$

IDZ019>023-301200-
SOUTHEAST IDAHO


CITY           SKY/WX    TMP DP  RH WIND       PRES   REMARKS
IDAHO FALLS    CLOUDY    48  39  71 N6        30.20R
POCATELLO      CLOUDY    47  37  68 N5        30.16S
REXBURG        CLOUDY    49  38  65 NE5       30.22R
$$

IDZ006-010-011-018-031-032-301200-
CENTRAL IDAHO MOUNTAINS


CITY           SKY/WX    TMP DP  RH WIND       PRES   REMARKS
MCCALL         PTCLDY    49  33  54 E3        30.16F
HAILEY         PTCLDY    54  32  43 NW9       30.23F
STANLEY          N/A     41  25  53 CALM      30.32F
SALMON         PTCLDY   N/A N/A N/A MISG        N/A
CHALLIS        PTCLDY    53  25  33 CALM      30.21F
$$

IDZ002-004-006-007-026-301200-
NORTHERN IDAHO


CITY           SKY/WX    TMP DP  RH WIND       PRES   REMARKS
LEWISTON       MOCLDY    69  42  37 CALM      29.93S
LOWELL           N/A     58  50  75 CALM      30.01S
COEUR D`ALENE  PTCLDY    57  43  58 CALM      29.98S
MULLAN PASS    MOCLDY    64  34  32 SE8       30.21F
$$




USA.gov is the U.S. government's official web portal to all federal, state and local government web resources and services.